Flag for Germany Weather past 2 weeks in Neumarkt in der Oberpfalz, Bavaria, Germany

Now
64 °F

Broken clouds.


Feels Like: 64 °F
Forecast: 48 / 66 °F
Wind: 9 mph from West

Location: Hohenfels

Current Time: Apr 25, 2015 at 3:34:28 PM

Latest Report: Apr 25, 2015 at 2:58 PM


Visibility: N/A

Pressure: 29.88 "Hg

Humidity: 49%

Dew point: 45 °F

Location of Neumarkt in der OberpfalzLocation

Historic Weather in Neumarkt in der Oberpfalz — Graph

°F

Neumarkt in der Oberpfalz temperature yesterday

Maximum temperature yesterday: 64 °F (at 4:58 PM)
Minimum temperature yesterday: 36 °F (at 6:58 AM)
Average temperature yesterday: 49 °F

Past Weeks' High & Low Weather Summary

 TemperatureHumidityPressure
High73 °F (Apr 15, 5:58 PM)100% (Apr 11, 6:58 AM)30.45 "Hg (Apr 11, 6:58 AM)
Low26 °F (Apr 19, 5:58 AM)20% (Apr 21, 4:58 PM)29.85 "Hg (Apr 17, 2:58 AM)
Average50 °F60%30.18 "Hg
* Reported Apr 10 1:58 PM — Apr 25 1:58 PM, Neumarkt in der Oberpfalz, Weather by CustomWeather, © 2015

Note: Actual official high and low records may vary slightly from our data, if they occured in-between our weather recording intervals... More about our weather records

Advertising

Neumarkt in der Oberpfalz weather history for previous 24 hours

 ConditionsComfort  
Time TempWeatherWind HumidityBarometerVisibility
1:58 PM
Sat, Apr 25
64 °FPartly sunny.10 mph40%29.89 "HgN/A
12:58 PM66 °FBroken clouds.8 mph37%29.89 "HgN/A
11:58 AM64 °FScattered clouds.5 mph46%29.90 "HgN/A
10:58 AM59 °FScattered clouds.6 mph55%29.91 "HgN/A
9:58 AM55 °FSunny.7 mph59%29.91 "HgN/A
8:58 AM52 °FSunny.6 mph67%29.91 "HgN/A
7:58 AM45 °FSunny.3 mph76%29.91 "HgN/A
6:58 AM36 °FClear.1 mph87%29.91 "HgN/A
5:58 AM34 °FClear.1 mph93%29.91 "HgN/A
4:58 AM34 °FClear.1 mph93%29.92 "HgN/A
3:58 AM36 °FClear.No wind87%29.92 "HgN/A
2:58 AM36 °FClear.No wind87%29.94 "HgN/A
12:58 AM39 °FClear.2 mph75%29.97 "HgN/A
11:58 PM
Fri, Apr 24
39 °FClear.No wind75%29.97 "HgN/A
10:58 PM43 °FClear.No wind66%29.97 "HgN/A
9:58 PM46 °FClear.3 mph62%29.96 "HgN/A
8:58 PM50 °FSunny.5 mph58%29.96 "HgN/A
7:58 PM57 °FSunny.1 mph44%29.96 "HgN/A
6:58 PM64 °FSunny.2 mph30%29.96 "HgN/A
5:58 PM64 °FSunny.2 mph30%29.95 "HgN/A
4:58 PM64 °FSunny.5 mph30%29.96 "HgN/A
3:58 PM63 °FSunny.3 mph32%29.97 "HgN/A
Weather by CustomWeather, © 2015

See weather overviewHow to use our weather pages